Wind_Speed
27 26 26 25 24 23 23 23 22 22 22 23 23 24 25 24 23 22 21 19 18 17 17 17 17 17 17 18 17 16 16 17 17 16 15 14 15 15 15 15 15 15 15 14 13 13 11 10 10 9 9 9 9 9 10 10 12 13 13 13 13 13 12 12 14 14 13 16 18 19 20 21 22 22 20 19 18 17 17 18 18 19 20 20 19
28 26 26 25 24 23 23 23 22 22 22 22 23 24 24 23 22 21 20 18 17 16 16 17 17 17 17 17 17 16 16 16 16 15 14 13 14 14 14 13 14 14 13 13 13 12 11 11 10 10 10 9 10 10 11 12 13 14 13 13 13 13 12 12 14 14 14 16 18 19 19 19 20 20 20 18 17 17 18 18 18 19 20 20 18
25 27 26 25 24 23 23 23 22 22 22 22 23 23 23 22 21 19 18 17 16 15 15 16 16 17 17 16 16 16 15 15 15 14 13 12 13 14 14 13 13 13 12 12 12 12 11 10 10 10 10 10 10 11 11 13 14 14 14 14 13 13 12 12 12 12 13 15 17 18 18 17 18 19 19 17 17 18 18 18 18 19 20 19 18
23 27 27 25 24 23 23 23 23 23 22 22 22 22 21 21 20 18 17 16 15 14 14 14 15 16 16 16 15 16 15 14 14 14 13 13 14 16 15 14 12 12 12 12 11 11 11 10 10 10 11 11 11 11 12 13 14 14 14 14 13 12 11 11 10 11 11 13 16 18 17 16 16 17 17 16 17 18 18 18 18 19 18 18 18
24 27 27 25 24 23 23 23 23 23 23 22 21 21 20 20 19 17 16 15 14 13 13 13 14 14 15 15 15 16 16 14 14 14 13 14 16 17 17 15 13 11 11 12 11 9 10 11 11 11 11 13 12 12 12 13 15 15 15 14 13 12 11 10 9 9 10 12 15 17 17 15 15 16 16 15 17 18 18 18 17 18 17 17 18
26 27 27 26 25 24 23 23 23 23 23 22 21 20 19 18 18 16 15 14 13 13 12 12 12 13 13 14 14 16 16 15 14 14 14 15 16 16 16 15 13 12 11 11 10 8 9 11 11 11 11 13 13 12 13 15 17 17 16 14 13 11 10 9 8 7 9 12 14 16 18 17 14 14 15 15 16 18 18 17 17 17 17 17 18
25 27 27 27 25 24 23 23 23 23 22 22 21 20 19 18 17 16 15 14 13 12 12 12 12 12 12 13 13 16 16 15 15 14 14 15 15 15 15 14 13 12 9 8 8 8 8 10 11 10 10 12 14 14 15 18 18 18 16 15 13 11 10 8 7 6 7 13 14 16 19 18 16 13 13 14 15 17 17 16 16 16 17 17 17
25 27 27 27 26 24 23 23 23 22 22 21 21 20 19 17 16 15 14 13 12 12 12 12 12 12 12 12 13 15 15 15 15 14 14 14 14 13 13 12 12 10 8 7 7 6 8 10 11 11 10 12 14 15 18 19 19 18 17 15 13 11 9 8 6 5 6 12 14 15 17 17 16 12 11 13 15 15 15 15 15 16 16 17 17
26 27 27 27 26 24 23 22 22 21 21 20 20 19 18 17 16 15 14 13 13 12 12 12 12 12 13 13 13 14 14 14 15 14 13 13 13 12 11 10 9 8 7 6 5 6 8 9 10 10 10 13 15 15 19 20 19 19 17 16 14 12 10 8 6 5 4 10 12 12 14 14 14 11 10 11 14 14 13 14 14 14 15 16 16
25 26 26 26 25 24 22 21 21 20 20 20 20 20 19 17 16 16 15 14 14 14 14 14 13 13 14 14 14 14 15 15 15 13 12 13 12 11 10 8 7 5 5 4 5 6 8 8 8 8 9 13 14 16 19 20 20 19 18 17 15 12 10 8 7 5 3 8 10 10 11 11 11 9 9 9 12 13 12 13 13 13 14 15 16
25 23 24 24 23 22 21 20 20 20 21 21 20 20 19 18 17 16 16 16 16 15 14 14 13 14 15 16 15 14 15 15 14 13 12 12 11 10 8 7 5 3 4 5 5 6 7 7 6 6 8 11 14 16 19 20 20 20 19 17 15 13 10 9 7 5 5 6 8 8 8 9 9 7 7 8 10 12 12 12 12 13 13 14 15
26 22 21 22 23 21 20 19 20 20 21 21 21 20 19 19 18 18 17 17 16 15 15 14 14 16 16 17 16 15 15 15 14 13 11 11 10 9 7 6 5 4 4 5 5 6 6 6 5 5 6 9 12 16 19 20 21 20 19 17 15 13 10 9 7 6 5 6 8 7 7 8 7 5 6 7 8 11 11 11 11 12 13 13 13
29 25 22 21 22 21 20 19 20 21 21 21 21 21 20 19 18 18 18 17 17 16 15 15 16 17 17 17 17 16 15 14 13 12 11 9 9 8 7 6 6 5 4 4 5 6 6 6 6 5 5 8 11 13 18 21 22 21 19 17 15 12 9 8 7 6 5 6 7 7 7 7 6 4 6 7 7 9 10 10 11 11 12 12 12
29 27 24 22 22 21 20 20 20 21 21 21 21 21 20 20 19 18 18 17 17 17 17 17 17 17 17 17 17 16 15 14 13 11 10 9 8 8 8 8 7 6 5 5 5 6 5 5 6 6 5 7 9 11 15 20 22 21 19 18 16 13 9 9 7 5 5 6 6 6 5 5 6 5 6 6 7 8 9 9 10 10 11 11 12
26 29 26 23 22 22 20 20 20 21 20 21 21 21 21 20 19 19 18 18 18 17 17 17 17 17 17 16 16 15 15 14 13 11 10 9 9 8 8 8 7 7 6 5 5 5 4 4 5 5 5 5 8 9 12 19 23 21 20 18 16 14 11 10 7 5 4 5 5 4 4 4 5 5 5 6 5 6 8 9 9 9 10 11 12
26 30 28 25 24 23 22 20 21 21 20 20 20 21 20 20 20 19 18 18 17 16 16 16 16 16 16 16 15 15 14 13 12 11 10 9 9 8 8 7 6 6 5 4 4 4 2 3 4 4 5 5 7 9 11 17 23 23 20 18 16 14 13 11 7 5 4 4 4 3 2 2 3 4 4 5 4 5 6 8 8 9 9 10 11
28 29 28 27 26 24 23 22 21 21 21 20 20 20 19 19 19 18 18 17 16 15 15 14 14 14 14 14 14 14 13 12 12 11 11 10 8 7 6 5 4 4 3 3 3 2 2 2 3 3 3 4 6 9 11 16 22 24 21 18 15 13 12 10 7 6 4 3 2 2 1 1 3 3 3 4 4 4 5 7 7 7 8 9 9
28 29 29 28 26 24 23 23 22 22 21 21 20 19 19 18 18 18 18 16 16 15 14 13 13 13 13 13 13 13 12 11 11 11 10 9 8 6 4 3 3 3 2 3 2 2 1 2 3 3 3 3 6 9 11 16 22 24 21 18 14 11 11 9 7 6 4 3 1 2 2 1 2 2 3 4 4 4 5 6 7 7 7 8 8
29 29 29 27 25 24 23 23 22 22 21 21 20 19 18 17 17 17 17 16 15 14 13 13 13 12 12 12 12 11 10 10 10 10 9 9 7 5 4 3 3 2 2 2 2 2 2 2 3 3 3 2 4 8 11 15 22 23 20 18 14 10 9 8 7 6 4 3 0 3 4 3 1 1 2 4 5 4 4 6 6 7 8 7 7
28 29 28 26 25 24 23 23 22 21 20 20 19 18 17 16 16 16 16 15 13 13 12 12 12 12 12 12 11 10 9 8 8 8 8 8 7 6 5 4 3 3 2 2 2 2 2 3 3 3 3 3 4 8 12 14 20 22 19 17 14 10 8 8 7 7 5 3 0 4 5 5 3 1 2 4 5 5 4 4 5 6 7 7 7
29 29 27 25 25 24 24 23 21 21 20 19 18 17 17 16 15 15 15 13 12 12 12 11 11 11 11 11 10 9 9 8 7 7 8 8 7 6 5 4 4 3 2 1 2 1 2 3 3 3 3 3 4 7 12 14 17 21 19 17 14 10 8 7 6 7 7 4 1 3 4 5 4 2 2 4 5 5 5 4 5 6 7 7 7
30 28 25 25 24 24 23 22 21 20 19 18 17 16 16 15 14 13 13 13 12 12 12 11 11 10 10 10 10 9 9 8 7 7 7 7 7 6 5 4 4 3 2 1 1 2 2 2 3 3 3 4 4 6 10 13 16 20 20 18 15 10 7 6 5 7 7 4 2 2 4 6 5 3 1 3 5 5 5 5 5 5 6 7 6
27 26 25 24 23 23 22 21 21 19 18 17 16 16 15 15 13 13 13 13 12 11 10 10 10 10 9 9 9 9 9 8 6 6 6 7 7 7 6 5 4 3 2 2 2 2 2 2 2 4 5 5 6 7 9 12 14 18 20 18 14 9 7 5 5 6 6 4 3 3 4 6 6 5 2 3 4 5 5 6 6 5 5 6 6
24 23 23 23 22 22 21 20 20 19 18 16 16 16 15 14 13 13 12 12 12 11 10 10 9 9 9 8 8 8 8 7 6 6 6 7 7 7 6 6 5 4 3 3 3 2 1 2 2 3 6 7 8 10 10 10 12 15 18 17 12 9 7 6 4 5 5 3 3 3 4 6 7 5 2 3 5 6 5 6 6 5 5 6 5
20 19 20 21 21 20 19 19 18 17 17 16 17 16 16 14 13 12 11 11 12 12 11 10 10 9 8 8 8 8 9 7 6 6 6 7 7 7 7 6 6 5 4 4 4 3 2 3 3 4 7 8 10 12 11 10 10 11 14 14 10 7 7 7 4 4 5 4 3 4 4 6 6 5 2 3 4 6 5 6 7 6 6 6 6
19 19 20 19 19 19 18 18 17 17 16 16 16 15 14 13 11 11 10 10 11 12 12 11 10 9 9 9 8 9 9 8 7 6 6 7 7 8 8 7 6 6 5 5 5 5 4 4 5 7 9 10 11 12 10 10 10 9 10 12 9 5 5 7 5 4 5 4 3 4 5 6 6 4 2 3 4 6 6 7 8 8 6 6 6
20 18 19 19 18 17 16 16 16 16 16 15 14 13 12 11 10 10 10 10 9 10 11 10 10 10 10 10 9 9 9 9 7 6 7 7 7 7 8 8 7 7 5 6 7 6 6 5 6 9 12 13 12 12 10 10 10 9 8 9 9 5 3 5 4 4 5 5 4 4 5 5 4 3 2 3 3 5 7 8 8 8 8 7 6
22 17 17 17 15 14 15 15 15 15 15 14 13 12 11 10 10 10 10 9 8 8 9 9 10 11 11 11 10 9 9 9 7 7 7 7 6 5 7 8 8 8 7 7 8 7 6 6 6 10 14 14 12 11 10 9 10 10 8 8 8 5 3 4 2 4 7 6 5 4 4 4 4 3 1 2 4 5 7 8 9 9 8 8 7
22 16 15 14 13 13 13 13 13 13 13 12 11 10 9 9 9 9 9 9 8 8 8 8 9 11 11 11 11 8 8 8 8 7 7 7 6 5 7 9 9 9 8 8 8 9 8 6 7 9 12 13 12 11 10 8 9 9 8 8 7 6 6 6 4 4 6 7 6 4 3 3 4 3 1 1 3 5 7 7 8 9 9 9 9
22 18 15 14 13 12 12 11 11 10 9 9 8 8 8 7 7 7 9 8 8 8 8 7 8 10 9 10 10 9 9 9 9 9 9 8 7 7 9 10 11 10 9 10 9 9 8 7 7 8 10 12 12 11 9 8 8 8 7 8 7 7 8 8 7 5 4 6 7 5 3 3 3 2 1 1 2 4 6 7 7 9 9 9 9
21 19 17 13 12 12 10 10 9 8 8 7 7 8 6 6 6 6 8 8 7 8 7 7 7 8 9 10 10 11 11 10 10 10 9 9 8 9 10 10 11 10 10 11 11 10 9 8 7 6 8 11 11 10 8 8 9 8 9 11 11 10 9 9 9 7 5 5 6 4 3 2 2 2 2 0 1 2 5 6 7 7 8 8 9
19 18 16 13 12 11 10 10 9 8 8 7 7 7 6 5 6 6 7 7 7 8 7 6 7 8 10 11 11 11 11 11 11 11 9 8 8 9 10 11 10 11 11 10 10 10 9 9 9 7 7 10 11 11 10 10 10 10 10 13 14 14 12 11 10 8 6 5 5 4 3 2 2 2 2 1 0 1 3 5 6 5 6 7 7
18 17 17 15 14 12 11 10 10 10 10 8 7 7 7 6 6 6 6 7 7 7 7 7 7 9 10 10 10 10 10 11 11 11 10 8 8 9 11 11 11 11 11 10 10 10 9 10 10 9 9 9 11 14 13 12 12 11 11 11 13 15 16 14 13 10 7 5 5 6 4 2 2 1 1 1 1 0 1 3 5 5 5 5 6
18 17 20 19 16 15 13 12 12 13 11 9 9 9 8 7 6 5 5 6 6 6 7 6 7 8 8 9 9 9 10 10 11 11 10 9 9 9 10 10 10 11 10 10 10 10 9 9 10 11 12 10 11 15 16 15 15 13 11 11 10 13 16 15 15 12 9 7 6 6 5 4 3 1 1 1 1 0 1 2 3 4 4 4 5
21 19 22 22 19 17 15 14 14 14 13 10 10 10 9 7 6 5 5 5 5 5 5 6 6 7 7 7 7 8 9 9 10 11 10 10 10 9 10 10 9 10 11 10 10 10 11 10 11 11 12 11 11 14 18 17 17 14 12 13 11 11 11 11 13 13 12 11 9 8 7 6 5 3 2 2 2 1 0 1 2 2 3 3 4
25 22 24 25 22 20 17 16 15 15 14 11 11 11 9 8 7 6 5 5 5 6 6 6 5 5 5 6 7 7 7 7 8 9 9 9 9 9 9 9 9 10 11 10 11 11 12 12 12 11 11 11 12 14 18 18 18 16 13 14 14 13 10 7 9 12 14 14 12 10 11 10 8 6 4 3 2 2 1 1 2 2 2 3 4
26 22 25 28 26 22 20 17 16 15 15 13 11 10 9 9 7 6 7 7 7 7 7 7 6 5 5 5 6 5 5 7 8 9 8 7 7 8 9 9 9 10 10 10 11 12 12 12 11 11 12 13 13 14 16 18 19 18 14 14 15 16 14 9 8 10 13 15 13 11 13 13 10 9 8 5 4 3 2 2 2 2 3 2 2
22 21 25 30 27 23 21 20 17 16 15 13 12 11 10 9 7 7 9 9 8 7 8 8 7 6 5 4 5 5 6 7 8 7 7 7 7 7 8 9 10 10 10 11 12 12 12 11 11 12 13 14 14 14 15 15 17 18 16 16 17 17 17 12 9 8 9 12 14 12 12 13 12 11 11 9 7 5 3 3 3 3 3 3 2
21 22 28 31 27 23 22 21 19 18 16 14 13 13 12 11 10 10 11 10 9 8 7 7 7 6 5 5 6 6 7 7 7 6 5 6 5 5 6 7 7 8 9 11 12 12 12 12 12 12 13 14 14 15 15 14 14 15 14 15 17 17 17 15 12 9 8 10 12 13 12 12 12 12 13 13 10 7 6 4 4 4 3 3 3
24 26 32 31 26 24 23 22 21 20 18 17 16 14 14 13 12 12 11 10 10 9 8 6 5 4 2 3 6 6 6 6 7 7 6 6 5 5 4 4 3 4 5 8 9 10 11 11 11 12 12 13 15 16 15 13 13 12 10 10 14 16 16 16 16 13 11 11 11 12 12 11 10 10 12 14 13 10 9 7 5 5 4 3 3
26 29 31 29 26 25 24 24 24 22 20 19 17 16 15 14 13 13 11 10 10 9 8 6 5 3 1 3 5 5 4 4 6 7 8 6 5 3 2 2 2 3 3 4 5 6 7 7 9 11 12 12 13 15 16 14 14 13 10 9 12 15 15 17 18 17 14 12 12 12 12 11 9 7 9 11 14 13 11 9 7 6 6 5 4
27 29 29 28 27 25 23 24 24 22 20 18 17 17 16 14 13 13 12 11 9 8 7 7 5 3 2 4 5 5 5 5 5 6 7 6 4 2 1 2 3 3 3 3 3 3 5 6 8 10 10 11 11 13 15 15 15 13 12 11 11 14 16 17 19 19 16 15 15 14 13 12 10 7 7 8 11 13 13 11 10 9 8 8 7
27 27 26 26 27 25 23 23 23 21 19 18 17 16 15 15 14 13 12 11 11 10 9 8 7 6 4 8 8 9 9 7 6 5 5 5 4 2 2 3 4 5 5 4 4 4 5 5 7 8 8 9 9 11 13 13 13 12 11 11 10 10 12 12 15 18 18 17 17 16 15 15 14 11 8 7 7 10 12 12 12 11 11 11 10
26 26 24 25 26 26 24 23 22 20 18 17 16 15 15 14 13 12 10 11 12 11 10 9 8 6 7 9 9 11 11 8 6 5 4 4 3 2 1 3 4 5 6 6 5 4 4 4 4 6 7 8 8 9 11 11 11 10 9 9 8 8 7 7 10 15 18 18 17 17 15 14 16 14 10 7 7 7 8 10 11 11 11 12 12
27 25 23 25 27 27 25 22 22 20 19 19 17 16 16 15 15 15 13 13 12 9 9 10 9 8 9 9 9 10 9 7 7 5 4 4 4 2 1 2 3 3 4 4 4 3 2 3 2 3 5 6 7 8 10 10 10 11 11 9 7 6 7 6 7 10 15 18 18 17 14 12 12 12 10 9 8 7 7 8 9 10 11 11 12
27 24 23 25 27 26 24 23 22 22 21 20 18 16 15 15 16 16 15 14 12 10 11 11 10 9 9 8 8 8 7 6 7 7 6 6 6 5 3 1 1 1 3 2 3 3 1 1 1 2 2 4 5 5 6 7 8 10 12 11 8 6 6 7 7 6 8 13 16 16 14 13 11 11 11 11 10 9 8 8 9 10 11 11 11
27 23 23 24 26 25 23 24 24 23 22 20 18 16 16 15 14 13 13 12 12 13 12 11 10 9 9 8 8 7 6 5 6 7 8 8 7 6 5 2 1 2 2 3 3 3 3 3 2 1 1 2 4 3 3 5 6 8 10 11 11 8 6 6 7 6 5 7 11 13 14 14 13 12 11 11 11 11 10 11 10 10 11 11 12
27 24 23 25 26 26 24 25 25 24 22 19 18 17 16 15 14 13 11 10 13 15 14 12 11 10 10 9 8 7 7 6 5 6 8 9 7 6 4 3 3 3 4 6 6 6 6 5 4 1 1 1 4 4 4 4 4 6 9 10 10 10 9 8 7 7 6 5 6 9 10 10 10 10 9 9 9 10 12 14 14 13 12 12 11
26 24 24 24 25 26 25 25 26 24 22 20 19 19 17 16 15 15 13 13 15 16 15 12 11 11 11 11 10 9 8 8 7 6 7 8 6 5 4 4 3 1 2 4 6 6 7 6 5 4 3 2 3 4 4 4 5 6 7 9 8 8 9 10 9 8 7 5 5 6 7 7 6 5 5 5 4 5 7 9 12 15 16 16 14
25 24 24 24 24 25 25 26 26 25 23 22 22 21 20 18 17 17 16 17 18 17 15 13 12 12 12 12 12 11 10 9 8 8 8 7 6 5 5 5 5 6 6 4 2 1 1 3 4 5 4 3 3 3 2 2 4 5 6 7 7 6 7 8 8 9 8 6 6 6 6 5 6 5 4 4 3 2 3 4 7 10 11 13 15
25 24 25 25 25 25 26 27 27 27 26 25 24 23 21 20 19 18 19 20 20 18 16 15 14 13 13 13 13 12 11 10 9 9 8 7 7 7 7 7 6 7 8 8 8 8 7 5 2 2 4 4 3 3 3 4 4 5 5 5 5 4 4 4 5 6 6 6 6 5 5 5 6 6 6 5 4 3 3 3 5 6 6 8 13
Wind_Direction
166 160 157 153 154 154 153 153 151 149 147 147 148 151 152 152 152 151 149 144 139 135 133 130 126 124 126 129 131 135 138 139 137 137 135 132 128 123 119 116 116 116 119 120 120 117 114 116 116 116 115 119 122 126 128 125 122 122 123 120 118 114 108 104 106 104 92 87 82 77 77 79 82 82 80 78 76 75 77 77 78 79 79 78 75
161 157 155 151 154 152 152 151 148 146 144 145 146 149 151 152 152 150 148 144 142 138 136 132 128 125 125 129 131 133 137 138 137 137 134 131 128 125 120 116 114 111 112 115 117 116 116 119 120 121 116 119 122 125 126 125 126 126 128 125 124 118 113 112 112 104 92 89 86 80 76 75 79 82 82 80 79 77 77 77 76 76 79 81 78
156 152 152 150 153 152 151 149 145 144 143 145 146 149 151 153 153 151 148 145 144 141 139 134 131 128 126 128 132 133 136 138 136 135 132 129 124 123 119 114 113 106 105 108 113 117 121 124 123 123 121 123 123 124 126 128 129 129 130 128 126 122 121 119 117 109 95 91 87 82 78 75 76 79 81 83 83 78 75 74 74 75 78 82 81
155 149 151 150 152 152 150 147 144 143 144 146 147 150 152 155 155 153 150 148 148 144 141 136 134 131 128 129 133 136 136 139 137 134 131 126 121 118 115 111 111 106 101 102 107 116 124 124 119 121 124 122 120 123 128 131 131 132 132 129 130 127 126 124 122 116 104 94 84 79 78 75 74 76 79 84 84 80 77 75 76 78 80 83 82
151 148 150 150 153 152 149 146 144 144 145 148 149 152 154 157 156 155 153 152 151 146 143 138 137 132 131 130 134 139 137 138 139 136 132 128 123 117 115 113 113 113 103 95 95 106 123 123 119 120 121 118 118 125 130 134 133 135 133 129 130 128 130 130 129 124 116 101 85 76 74 72 71 73 76 80 83 81 78 77 78 80 81 82 83
150 147 149 151 153 152 149 145 144 145 147 149 151 154 156 158 157 157 157 157 155 150 146 141 139 135 132 131 134 140 138 137 140 139 135 132 126 121 118 118 118 118 106 89 82 87 112 124 124 120 121 120 120 125 130 135 136 136 134 132 132 133 135 136 135 134 130 108 90 76 70 67 63 66 73 76 79 82 80 78 79 81 83 83 84
151 148 149 152 153 152 149 145 144 145 147 150 152 156 159 160 159 160 161 161 159 155 151 146 142 138 135 134 135 141 141 137 141 141 138 135 131 127 123 123 123 121 107 84 74 75 97 113 117 115 118 121 124 128 131 137 138 137 137 137 135 135 134 136 139 145 142 112 92 77 70 64 58 58 69 75 76 80 82 80 79 82 85 85 85
152 150 151 152 153 152 148 146 144 144 146 148 151 156 159 160 160 161 162 162 161 157 153 148 143 140 137 137 138 143 145 141 142 142 141 140 137 133 127 127 126 122 109 86 74 73 83 93 101 106 108 109 116 128 134 139 139 139 138 136 132 131 134 139 142 155 151 112 93 75 69 61 53 55 66 75 77 77 79 80 79 82 85 85 85
153 152 151 153 152 151 148 144 141 141 142 145 148 152 156 157 157 157 158 159 157 154 149 145 143 141 138 138 141 145 148 145 144 144 143 142 141 138 131 130 128 125 111 87 75 71 76 83 94 102 106 107 114 128 137 141 141 140 136 133 131 134 140 146 154 166 148 99 88 71 63 55 49 56 67 73 79 80 78 82 83 83 86 86 84
156 156 153 153 151 149 147 141 138 137 138 140 142 145 148 150 151 151 151 150 149 147 144 143 141 140 139 140 143 143 146 146 145 145 145 143 141 138 134 134 135 135 115 88 77 76 79 85 96 104 112 113 119 132 140 144 143 140 136 135 135 137 142 157 170 161 103 75 78 68 52 44 48 60 71 74 80 84 83 85 87 84 85 87 87
155 161 157 153 150 148 144 138 136 135 136 137 138 139 141 142 144 144 143 143 144 145 143 142 142 141 140 140 142 142 142 142 141 142 144 144 142 140 139 141 145 148 114 96 90 90 86 81 89 108 121 119 123 135 143 146 144 142 139 138 135 136 149 170 171 136 103 80 73 60 37 35 46 58 77 82 82 87 89 89 91 88 86 87 89
148 161 163 156 150 147 143 136 135 134 135 135 136 136 136 137 137 138 139 141 143 145 144 144 143 141 140 141 143 142 141 139 138 137 139 142 145 146 145 150 150 139 112 102 104 104 90 76 79 102 130 128 126 137 147 149 146 146 143 139 136 141 160 180 166 139 132 99 72 52 33 32 42 59 87 92 88 91 94 91 92 92 90 87 88
145 156 166 161 152 148 142 136 135 134 134 134 134 134 133 132 131 134 137 139 140 141 143 144 142 140 141 143 143 142 141 139 137 136 138 142 147 150 149 151 144 133 119 110 111 105 90 80 77 85 124 138 132 138 148 152 150 149 146 141 141 148 170 188 174 154 139 98 74 56 43 38 48 81 101 99 97 99 100 97 95 94 93 90 90
145 152 165 166 155 150 143 138 136 133 134 134 134 132 131 130 130 132 134 135 135 135 138 141 140 139 142 144 144 144 143 141 140 142 145 151 153 153 150 145 139 133 125 115 108 102 93 84 75 73 97 134 137 138 148 155 155 153 150 144 144 151 176 199 185 160 132 101 83 62 56 52 61 93 109 107 108 107 106 104 101 99 98 96 94
149 152 163 168 158 153 146 140 135 132 133 133 133 132 131 132 132 134 134 134 132 134 137 138 139 139 142 143 145 145 145 145 145 151 155 158 157 154 149 144 140 133 127 117 104 100 98 87 76 70 81 119 136 140 147 156 160 157 153 147 148 158 183 204 186 157 136 109 89 63 56 55 68 99 116 116 117 110 109 109 107 104 103 99 95
155 153 160 167 162 157 148 140 136 133 133 132 132 131 132 134 135 137 135 135 135 139 141 141 141 141 143 144 147 147 148 149 150 155 157 158 156 154 151 147 142 136 133 120 104 97 88 84 81 75 80 111 133 141 146 156 163 160 155 150 152 167 189 203 182 162 148 108 79 47 28 49 78 103 121 128 132 121 113 110 108 106 103 100 96
158 155 161 168 165 158 149 142 139 136 135 133 131 130 133 136 137 137 134 136 140 146 149 148 146 144 147 150 151 151 152 152 152 155 156 157 157 156 153 150 145 138 131 117 107 94 71 74 86 88 87 114 135 142 145 155 165 163 156 151 151 169 190 195 175 165 150 111 76 22 346 78 101 111 135 146 151 143 127 116 113 112 105 103 102
161 161 164 169 165 158 151 147 145 142 140 136 134 134 135 138 137 134 130 135 145 153 156 154 151 151 153 155 156 157 157 156 156 158 159 162 163 163 160 158 149 136 124 111 109 101 87 79 92 104 101 124 140 144 145 154 165 165 158 150 147 162 182 184 169 160 151 134 119 338 333 3 96 123 151 163 171 168 147 131 124 122 119 111 107
164 165 166 169 165 159 155 152 151 147 145 142 140 140 140 142 139 133 130 137 149 155 158 157 156 157 160 160 161 162 161 162 162 164 169 173 176 178 175 170 162 149 133 115 112 112 119 121 121 122 117 131 146 148 147 153 165 166 159 151 145 153 173 179 167 159 159 154 117 348 348 349 359 144 177 179 185 191 169 148 133 127 130 121 112
168 170 169 168 165 162 160 157 155 152 151 149 147 147 148 150 145 138 136 142 152 155 158 158 159 161 164 164 163 166 167 169 170 175 183 187 189 188 182 172 171 164 145 135 128 130 144 149 147 139 133 137 146 151 148 151 164 169 162 154 149 149 167 181 174 165 164 168 197 347 348 348 338 297 228 198 191 202 193 168 145 132 134 130 119
172 174 170 167 167 166 165 161 158 157 158 155 155 156 158 160 153 147 145 150 158 163 163 161 166 167 169 168 166 167 167 173 176 187 194 194 193 190 187 176 173 167 158 158 137 135 154 162 165 157 143 138 139 148 150 149 161 173 168 157 155 150 163 185 190 180 170 172 218 333 341 352 352 335 253 212 197 205 215 195 162 146 139 137 130
174 175 171 169 170 170 168 165 163 163 163 162 165 166 169 169 162 155 153 160 171 177 173 171 175 174 175 174 173 171 167 172 179 193 200 198 194 191 191 184 176 170 172 181 150 161 177 189 193 184 157 138 137 140 150 151 157 172 171 161 161 157 164 189 204 190 175 179 228 306 321 338 345 343 283 221 206 206 223 208 175 163 148 143 140
174 173 170 170 173 173 171 169 168 168 168 170 173 175 178 176 169 165 165 171 182 189 186 185 187 183 185 183 181 179 173 174 184 201 204 200 198 195 194 190 186 179 180 191 183 179 186 204 204 191 168 146 141 134 143 150 153 168 172 167 168 170 174 187 196 185 174 187 240 274 301 319 330 329 284 227 214 209 220 209 189 182 163 151 149
177 174 170 173 176 175 174 174 173 172 174 177 180 183 185 183 178 176 178 181 188 199 200 200 201 197 196 195 192 190 186 182 192 206 207 205 202 201 199 196 196 193 197 202 196 187 170 170 169 177 169 154 143 133 130 139 148 162 172 175 179 189 193 195 189 171 161 178 235 262 295 310 328 329 275 221 215 211 219 209 196 191 176 165 161
177 176 175 176 176 178 177 175 176 178 179 182 186 190 190 189 187 185 189 190 195 206 210 211 212 212 211 210 206 203 200 196 202 207 211 211 206 207 205 201 203 202 209 209 204 199 171 140 133 154 163 160 151 138 128 129 136 151 169 177 180 194 207 216 203 163 154 169 226 271 295 305 326 332 277 219 214 210 217 208 196 194 184 175 172
171 176 176 176 176 179 179 174 177 181 184 188 191 196 196 192 192 194 196 198 203 209 213 219 220 223 224 222 221 215 211 209 210 210 212 210 205 208 207 206 209 211 219 217 212 203 180 151 133 150 157 156 156 150 140 136 138 142 162 176 172 169 199 216 208 185 183 186 226 273 293 301 322 328 264 217 207 205 212 208 198 196 192 187 182
160 175 176 170 172 177 177 174 176 181 184 190 195 198 198 193 191 198 201 204 210 211 215 221 224 228 228 226 229 227 222 218 216 217 215 206 202 211 210 209 213 216 225 219 215 209 188 170 146 153 156 152 154 157 155 151 153 151 159 177 175 160 178 203 212 221 214 211 233 268 296 304 319 318 241 205 198 205 210 205 201 199 197 198 195
146 167 177 162 163 173 172 173 174 179 182 186 191 191 191 186 185 193 200 208 215 213 217 221 222 226 227 229 232 229 218 216 219 221 215 205 202 214 213 210 214 219 223 217 213 210 194 180 163 160 161 158 158 163 165 161 162 161 163 177 182 188 199 196 228 249 229 229 243 266 292 303 317 318 247 197 194 204 211 205 203 202 199 200 204
134 152 173 159 161 169 168 171 172 174 176 179 184 185 185 180 180 190 198 206 211 212 215 216 220 223 226 229 228 221 212 215 222 215 206 205 202 206 206 203 211 218 224 227 222 214 205 195 181 175 174 171 169 170 169 169 170 166 168 182 192 208 209 201 222 243 234 233 239 253 276 286 301 315 294 211 201 202 208 208 205 205 204 204 208
129 142 164 164 163 164 163 171 172 169 169 169 175 181 182 178 179 187 195 202 207 215 210 201 210 219 223 224 221 218 221 225 220 209 204 209 204 198 195 196 208 215 222 234 234 227 220 212 197 191 192 187 181 176 173 181 185 178 183 195 207 220 219 217 220 223 234 236 234 240 253 268 279 300 323 236 212 204 204 208 210 210 210 212 215
133 143 163 170 164 161 163 170 172 169 169 170 176 182 181 178 176 182 198 209 214 218 212 204 206 215 219 217 217 217 221 225 218 210 213 220 211 201 196 196 208 212 218 229 235 237 233 227 218 206 204 199 192 187 187 200 198 188 196 204 207 217 229 234 233 228 232 239 237 231 218 235 251 270 299 328 211 211 204 202 209 216 215 216 220
143 151 167 176 170 170 171 170 172 172 175 178 179 184 183 179 178 185 203 214 215 216 220 223 214 215 218 217 217 215 218 225 222 215 219 226 216 208 204 202 210 213 217 225 231 237 237 236 231 222 215 208 203 200 204 212 206 193 196 201 203 212 222 230 240 240 229 230 235 216 187 197 221 245 278 300 30 188 205 202 203 213 214 215 218
153 162 177 187 182 180 180 174 172 170 170 175 176 179 178 177 181 185 194 205 211 217 224 224 215 217 221 222 221 218 221 226 226 223 222 225 221 219 213 208 213 216 218 221 225 232 237 239 236 234 232 223 215 210 208 214 213 204 204 208 207 216 224 226 233 238 228 221 216 200 185 192 198 196 274 295 310 89 185 204 203 207 210 211 212
155 169 187 195 190 184 183 176 171 168 168 174 178 177 178 181 184 182 186 198 206 213 220 216 212 217 221 227 226 221 223 224 228 230 225 225 226 226 223 217 217 218 218 217 220 232 241 241 237 236 234 227 224 215 208 212 214 210 214 218 213 221 233 235 232 230 230 228 218 208 204 205 206 208 275 313 325 357 145 194 205 208 204 199 197
163 176 195 200 194 187 184 180 176 177 177 182 189 186 187 186 180 175 179 193 197 197 201 200 207 214 215 221 224 219 218 222 230 230 225 229 232 231 231 226 220 220 223 219 217 228 237 238 235 237 233 226 227 217 208 211 214 211 215 217 214 221 234 241 237 229 225 228 228 226 222 216 218 234 257 291 313 333 158 195 207 210 206 192 184
168 181 200 201 194 190 190 191 191 190 189 190 193 190 187 182 175 170 170 176 179 180 180 180 194 209 209 209 215 218 212 212 226 228 222 227 236 236 233 231 230 230 230 226 219 222 231 234 235 239 236 229 229 218 209 212 214 213 216 215 215 220 221 229 239 231 225 228 227 221 223 220 220 229 234 256 284 305 307 213 205 217 222 203 186
169 183 199 196 192 192 195 202 203 198 194 190 189 189 184 181 177 163 154 149 149 156 163 164 171 184 194 200 206 213 215 205 206 216 212 211 227 234 236 238 240 238 235 231 226 225 231 235 238 238 235 231 230 221 214 215 215 217 221 220 219 221 219 217 226 227 225 231 228 218 223 222 220 225 223 224 238 269 283 244 224 223 224 223 203
176 186 191 190 193 195 196 204 206 198 194 189 187 189 187 186 185 168 153 144 143 148 150 156 165 169 170 177 183 184 196 200 193 199 198 196 212 225 234 238 238 236 234 233 230 229 231 233 238 239 237 235 229 221 218 216 214 219 226 229 228 226 223 218 214 209 207 224 229 220 217 218 221 224 220 217 218 225 233 239 249 234 224 239 248
188 186 182 185 193 195 195 202 204 198 195 193 192 193 193 193 192 180 164 154 157 163 160 159 164 167 166 175 187 181 181 187 181 171 165 171 187 194 207 223 230 232 231 231 232 231 230 229 231 235 239 237 228 219 218 220 218 222 231 232 229 227 224 219 215 210 194 202 219 217 211 216 225 228 223 216 212 213 212 223 248 242 231 245 265
186 178 176 184 192 193 195 201 203 200 198 196 195 193 192 194 193 186 177 170 169 171 172 170 167 170 189 211 213 208 194 188 181 175 169 167 170 169 174 186 203 213 219 227 230 232 234 231 228 230 234 235 231 222 219 223 224 231 240 231 220 217 219 220 217 217 212 202 206 208 206 211 221 227 224 216 212 213 213 219 232 239 239 246 270
179 175 181 192 197 199 200 199 199 201 200 197 195 192 190 191 188 182 180 182 185 182 174 169 172 178 254 251 230 220 206 195 189 188 190 190 186 178 173 175 180 187 198 207 213 220 225 227 225 225 229 231 231 226 222 224 226 232 243 240 224 218 225 230 223 222 228 222 214 209 203 204 208 214 219 217 214 212 214 221 223 227 234 240 258
178 181 194 202 204 207 202 196 195 196 197 194 190 188 187 185 181 177 178 182 193 205 194 177 188 214 209 189 191 191 194 204 197 189 193 198 202 192 154 159 169 168 172 179 179 182 192 209 216 219 226 229 230 227 223 225 226 230 238 243 239 232 236 240 233 229 234 232 227 226 221 218 219 218 220 225 221 213 210 215 217 220 225 229 235
182 191 204 208 208 205 197 192 191 189 188 187 183 179 173 170 170 171 178 181 184 200 213 212 225 240 187 154 148 153 169 184 186 188 193 194 204 206 140 131 139 138 143 154 152 146 161 187 209 219 228 232 234 233 227 226 226 227 232 237 242 242 242 243 236 232 234 234 234 235 234 233 235 235 232 236 236 219 211 216 221 223 224 227 228
190 199 206 209 206 199 193 191 187 182 179 176 172 168 160 159 164 166 170 177 178 191 209 215 221 214 171 157 149 149 161 168 172 190 210 213 224 228 153 140 146 143 147 159 160 152 149 153 186 216 225 227 233 237 232 227 225 222 225 229 233 240 246 245 236 232 232 233 235 236 234 234 235 236 233 237 243 229 220 227 234 236 236 235 230
199 205 208 208 201 194 192 188 182 176 172 169 167 165 160 161 171 172 169 173 176 186 191 183 180 174 164 161 158 158 164 162 165 186 213 235 245 249 221 157 163 171 168 174 175 168 145 125 137 180 203 212 220 233 234 228 224 220 221 223 225 237 247 245 234 231 229 227 228 231 232 232 231 234 235 235 239 239 235 237 242 246 247 244 237
204 209 210 206 199 195 191 185 179 174 173 172 168 170 170 173 180 179 178 179 175 175 174 164 159 161 160 160 159 163 168 166 176 196 212 229 241 249 256 216 163 186 183 196 198 191 169 120 82 106 163 188 191 217 234 229 222 219 222 226 229 243 252 242 228 228 229 225 224 226 231 237 236 236 239 238 238 240 241 243 244 247 250 249 243
205 209 209 205 200 197 191 184 180 178 180 179 175 179 183 187 191 187 187 184 170 163 162 154 149 152 154 159 165 169 177 183 194 208 212 213 222 235 243 229 206 190 204 237 243 244 258 267 285 53 103 148 147 162 198 207 212 218 222 224 228 237 245 238 227 227 238 230 224 225 232 241 242 241 243 245 243 242 245 246 244 247 253 250 241
205 208 207 204 202 199 193 187 183 183 186 184 183 188 193 196 197 194 194 187 170 160 154 150 147 147 146 150 158 162 170 177 185 200 203 200 205 213 212 196 202 226 241 244 248 260 268 265 256 243 226 148 134 142 159 161 174 204 212 212 221 231 233 233 226 224 236 233 223 225 230 235 237 240 245 249 252 250 250 253 251 248 245 240 235
206 209 208 205 204 201 194 188 186 187 190 189 188 192 197 202 200 198 198 189 173 159 152 151 148 145 142 141 144 145 148 150 150 163 179 188 189 174 155 134 130 166 224 233 240 253 259 252 243 242 244 207 158 155 162 147 142 166 182 187 201 215 220 223 219 217 222 216 203 209 220 221 215 217 225 235 251 247 247 256 258 253 246 243 245
206 208 208 206 205 203 198 193 191 189 191 193 193 195 199 202 202 204 201 187 172 160 155 156 152 148 143 139 138 136 135 134 130 134 150 165 159 133 121 109 98 96 95 97 107 117 232 227 237 246 244 231 201 187 193 177 162 163 165 173 185 194 204 211 209 208 208 203 196 194 203 211 201 190 182 187 191 207 233 239 245 257 259 254 256
205 209 211 210 209 207 202 199 197 193 192 196 198 198 200 204 205 208 202 185 171 164 160 160 159 153 144 138 136 131 129 127 124 123 126 134 130 115 110 109 105 99 94 91 89 83 82 92 111 209 228 240 246 245 265 268 232 206 199 201 205 197 190 194 193 192 193 196 203 199 194 194 189 176 160 158 165 162 168 200 227 256 268 255 256
Height
1505 1507 1509 1510 1512 1512 1513 1513 1513 1513 1513 1514 1514 1516 1517 1519 1520 1521 1522 1523 1524 1524 1525 1526 1526 1527 1527 1528 1529 1529 1530 1531 1531 1532 1532 1533 1533 1534 1534 1534 1534 1535 1535 1536 1537 1537 1537 1537 1538 1538 1539 1539 1540 1540 1541 1542 1543 1543 1544 1544 1544 1544 1544 1545 1545 1545 1545 1546 1545 1545 1544 1544 1543 1542 1542 1542 1542 1541 1541 1541 1540 1540 1539 1539 1539
1504 1508 1510 1511 1513 1513 1514 1514 1515 1514 1514 1515 1516 1517 1519 1520 1521 1522 1523 1523 1524 1524 1525 1526 1526 1527 1528 1528 1529 1530 1530 1531 1532 1532 1533 1533 1534 1534 1534 1535 1535 1535 1536 1537 1537 1537 1538 1538 1538 1539 1539 1540 1540 1541 1542 1543 1543 1544 1544 1545 1545 1545 1545 1546 1546 1546 1547 1547 1546 1546 1546 1545 1544 1544 1543 1543 1543 1543 1542 1542 1542 1541 1540 1540 1540
1505 1508 1510 1511 1513 1515 1515 1515 1515 1515 1515 1516 1517 1519 1520 1521 1522 1523 1523 1524 1524 1525 1525 1526 1527 1527 1528 1529 1529 1530 1531 1531 1532 1533 1533 1533 1534 1534 1534 1535 1535 1536 1537 1537 1538 1538 1538 1538 1539 1539 1540 1540 1541 1542 1542 1543 1544 1544 1545 1545 1546 1546 1546 1546 1547 1547 1547 1548 1548 1547 1547 1547 1546 1545 1545 1544 1544 1544 1543 1543 1543 1542 1542 1541 1541
1506 1508 1510 1512 1514 1515 1516 1516 1516 1515 1516 1516 1518 1519 1521 1522 1523 1524 1524 1525 1525 1525 1526 1526 1527 1527 1528 1529 1530 1530 1531 1532 1533 1533 1534 1534 1534 1535 1535 1536 1536 1537 1537 1538 1538 1538 1539 1539 1539 1539 1540 1541 1542 1542 1543 1544 1544 1545 1545 1546 1546 1547 1547 1547 1547 1548 1548 1549 1549 1548 1548 1548 1548 1547 1546 1546 1545 1545 1544 1544 1544 1544 1543 1543 1542
1507 1509 1511 1512 1514 1516 1516 1516 1516 1515 1516 1517 1518 1519 1521 1522 1524 1524 1525 1526 1526 1526 1526 1527 1527 1528 1529 1529 1530 1531 1531 1532 1533 1534 1534 1535 1535 1536 1536 1536 1537 1537 1538 1538 1539 1539 1539 1539 1540 1540 1541 1541 1542 1542 1543 1544 1545 1545 1546 1546 1547 1547 1547 1547 1548 1548 1549 1550 1550 1550 1549 1549 1549 1549 1548 1547 1546 1546 1545 1545 1545 1545 1545 1544 1544
1507 1509 1511 1512 1514 1515 1516 1515 1515 1515 1516 1516 1517 1519 1520 1522 1524 1524 1525 1526 1526 1527 1527 1527 1528 1528 1529 1529 1530 1531 1532 1533 1533 1534 1535 1535 1536 1536 1537 1537 1538 1538 1538 1539 1539 1539 1539 1540 1540 1541 1541 1542 1542 1543 1544 1544 1545 1546 1546 1547 1547 1547 1547 1548 1548 1548 1549 1550 1551 1551 1550 1550 1551 1550 1550 1549 1548 1547 1546 1546 1546 1546 1546 1545 1545
1508 1509 1510 1511 1513 1515 1515 1515 1515 1515 1515 1516 1517 1518 1520 1521 1523 1524 1525 1526 1527 1527 1527 1528 1528 1529 1529 1530 1530 1531 1532 1533 1534 1535 1535 1536 1536 1537 1537 1538 1538 1538 1539 1539 1540 1540 1540 1540 1541 1541 1542 1542 1543 1543 1544 1545 1546 1546 1547 1547 1547 1547 1548 1548 1548 1548 1549 1551 1552 1551 1551 1551 1552 1552 1551 1550 1549 1548 1548 1547 1547 1547 1547 1546 1546
1508 1509 1509 1511 1513 1514 1514 1515 1514 1514 1515 1515 1516 1518 1519 1521 1523 1524 1525 1526 1527 1527 1528 1528 1528 1529 1529 1530 1531 1532 1532 1533 1534 1535 1536 1536 1537 1537 1538 1538 1539 1539 1539 1540 1540 1540 1540 1541 1541 1542 1542 1543 1543 1544 1544 1545 1546 1546 1547 1547 1548 1548 1548 1548 1548 1548 1549 1551 1552 1552 1552 1552 1553 1553 1552 1552 1551 1550 1549 1548 1548 1548 1547 1547 1547
1511 1510 1510 1511 1513 1514 1515 1515 1514 1515 1515 1516 1517 1518 1519 1521 1523 1524 1526 1527 1527 1528 1528 1528 1528 1528 1529 1530 1531 1532 1533 1534 1535 1535 1536 1537 1537 1538 1539 1539 1539 1539 1540 1540 1541 1541 1541 1541 1542 1542 1543 1543 1544 1544 1545 1546 1546 1547 1547 1548 1548 1548 1548 1548 1548 1548 1549 1551 1552 1553 1553 1554 1554 1554 1554 1553 1552 1551 1551 1550 1549 1549 1548 1548 1548
1515 1513 1512 1513 1514 1516 1516 1516 1515 1515 1516 1517 1518 1519 1520 1521 1523 1525 1526 1527 1528 1528 1528 1528 1528 1528 1529 1530 1531 1532 1533 1534 1535 1536 1536 1537 1538 1538 1539 1540 1540 1540 1540 1541 1541 1541 1542 1542 1542 1543 1543 1544 1544 1545 1545 1546 1547 1547 1548 1548 1548 1548 1549 1548 1548 1549 1550 1552 1553 1553 1554 1554 1555 1555 1555 1554 1553 1552 1552 1551 1550 1550 1549 1549 1549
1515 1519 1517 1517 1517 1517 1518 1517 1516 1516 1517 1518 1518 1519 1520 1521 1523 1525 1526 1527 1528 1528 1529 1529 1528 1529 1529 1530 1531 1533 1534 1534 1535 1536 1537 1537 1538 1539 1539 1540 1540 1541 1541 1541 1541 1542 1542 1542 1543 1543 1544 1544 1545 1545 1546 1547 1547 1548 1548 1549 1549 1549 1549 1548 1549 1550 1551 1552 1553 1553 1554 1555 1555 1556 1555 1555 1555 1554 1553 1552 1552 1551 1550 1550 1550
1511 1520 1522 1520 1519 1519 1519 1518 1517 1517 1517 1518 1519 1519 1520 1521 1523 1525 1526 1528 1528 1529 1529 1529 1529 1529 1529 1530 1532 1533 1534 1535 1535 1536 1537 1538 1539 1539 1539 1540 1541 1541 1541 1542 1542 1542 1542 1543 1543 1544 1544 1545 1546 1546 1546 1547 1548 1548 1549 1549 1549 1549 1549 1549 1550 1551 1551 1552 1553 1554 1555 1555 1556 1556 1556 1556 1556 1555 1554 1554 1553 1552 1552 1551 1551
1508 1516 1522 1522 1520 1519 1519 1518 1518 1517 1518 1519 1519 1520 1521 1521 1523 1525 1526 1527 1528 1529 1529 1529 1529 1529 1530 1531 1532 1533 1534 1535 1536 1537 1538 1539 1539 1539 1540 1540 1541 1541 1542 1542 1542 1543 1543 1543 1543 1544 1544 1545 1546 1546 1547 1547 1548 1549 1549 1550 1550 1550 1549 1549 1550 1551 1551 1552 1553 1554 1555 1556 1556 1556 1556 1556 1556 1556 1555 1555 1554 1553 1553 1552 1552
1508 1513 1520 1522 1521 1520 1519 1518 1518 1518 1518 1519 1520 1520 1521 1522 1523 1525 1526 1528 1528 1529 1529 1529 1530 1530 1531 1532 1532 1533 1534 1534 1535 1537 1538 1539 1539 1540 1540 1541 1541 1541 1542 1542 1543 1543 1543 1543 1544 1544 1544 1545 1546 1547 1547 1548 1549 1549 1550 1550 1551 1550 1549 1549 1550 1551 1552 1553 1554 1555 1556 1556 1557 1557 1557 1557 1557 1556 1556 1555 1555 1554 1554 1553 1553
1508 1511 1516 1521 1521 1520 1519 1518 1518 1518 1519 1520 1521 1521 1521 1522 1523 1525 1527 1528 1529 1529 1529 1530 1530 1531 1531 1532 1533 1533 1534 1534 1535 1536 1537 1539 1540 1540 1540 1541 1541 1542 1542 1543 1543 1543 1543 1544 1544 1544 1545 1545 1546 1547 1548 1548 1549 1550 1550 1551 1551 1550 1549 1549 1551 1552 1552 1553 1554 1555 1556 1557 1557 1557 1557 1557 1558 1557 1557 1556 1556 1555 1555 1554 1554
1509 1509 1514 1519 1521 1520 1519 1519 1519 1519 1520 1520 1521 1522 1522 1523 1524 1526 1527 1528 1529 1529 1530 1530 1531 1532 1532 1532 1533 1533 1534 1534 1535 1536 1537 1539 1540 1540 1541 1541 1542 1542 1543 1543 1543 1544 1544 1544 1545 1545 1545 1545 1546 1547 1547 1548 1549 1550 1551 1551 1551 1551 1550 1550 1552 1553 1553 1554 1555 1556 1557 1557 1557 1557 1558 1558 1558 1558 1557 1557 1556 1556 1556 1555 1554
1510 1510 1512 1518 1519 1519 1519 1519 1519 1520 1520 1521 1522 1522 1523 1524 1525 1527 1528 1529 1529 1530 1530 1531 1532 1532 1533 1533 1533 1533 1534 1534 1535 1536 1537 1538 1540 1540 1541 1541 1542 1543 1543 1543 1544 1544 1544 1544 1545 1545 1545 1545 1546 1547 1547 1548 1549 1550 1551 1551 1551 1551 1550 1551 1552 1553 1554 1555 1555 1556 1557 1558 1558 1558 1558 1558 1558 1558 1558 1557 1557 1557 1556 1556 1555
1511 1511 1513 1517 1518 1518 1518 1518 1519 1520 1521 1521 1522 1523 1523 1524 1526 1528 1529 1530 1530 1530 1531 1531 1532 1533 1533 1533 1533 1534 1534 1535 1535 1536 1537 1538 1539 1540 1541 1541 1542 1543 1543 1544 1544 1544 1544 1545 1545 1545 1545 1545 1546 1546 1547 1547 1549 1550 1550 1551 1551 1551 1551 1552 1553 1554 1554 1555 1556 1557 1558 1558 1558 1558 1558 1558 1558 1558 1558 1558 1557 1557 1557 1557 1556
1511 1512 1514 1517 1517 1518 1518 1519 1520 1520 1521 1521 1522 1523 1524 1525 1527 1529 1529 1530 1530 1530 1531 1532 1533 1533 1533 1533 1534 1534 1534 1535 1535 1536 1537 1538 1539 1540 1541 1541 1542 1543 1543 1543 1544 1544 1544 1544 1545 1545 1545 1545 1545 1546 1547 1547 1548 1549 1550 1551 1551 1551 1552 1552 1553 1554 1555 1555 1556 1557 1558 1558 1559 1559 1559 1558 1558 1559 1558 1558 1558 1558 1558 1557 1557
1511 1512 1513 1516 1517 1518 1518 1519 1520 1521 1521 1522 1523 1524 1525 1526 1527 1529 1530 1530 1530 1531 1532 1533 1533 1534 1534 1534 1534 1534 1534 1535 1536 1536 1537 1538 1539 1540 1541 1541 1542 1542 1543 1543 1543 1544 1544 1544 1544 1545 1545 1545 1545 1546 1547 1547 1548 1549 1550 1551 1551 1551 1552 1552 1553 1554 1555 1556 1556 1557 1558 1558 1559 1559 1559 1558 1558 1559 1559 1558 1558 1558 1558 1558 1558
1510 1512 1513 1515 1517 1518 1518 1519 1520 1521 1521 1522 1523 1524 1525 1526 1528 1530 1531 1531 1531 1531 1532 1533 1534 1534 1534 1534 1534 1534 1535 1535 1535 1536 1537 1538 1539 1540 1541 1541 1542 1542 1543 1543 1543 1544 1544 1544 1544 1545 1545 1545 1545 1545 1546 1547 1548 1549 1550 1551 1551 1552 1552 1552 1553 1554 1555 1555 1556 1557 1558 1558 1558 1558 1558 1558 1558 1559 1559 1559 1558 1558 1558 1558 1558
1510 1512 1514 1515 1516 1518 1519 1520 1520 1521 1522 1523 1524 1524 1525 1526 1528 1530 1531 1532 1531 1531 1532 1532 1533 1533 1534 1534 1535 1535 1535 1535 1535 1536 1537 1538 1539 1540 1541 1541 1541 1542 1542 1543 1543 1543 1544 1544 1544 1545 1545 1545 1545 1546 1546 1547 1548 1549 1550 1551 1551 1552 1552 1552 1553 1554 1555 1555 1556 1557 1558 1558 1558 1558 1558 1558 1558 1559 1559 1559 1558 1558 1558 1558 1558
1512 1512 1514 1515 1517 1518 1519 1520 1520 1521 1522 1523 1524 1524 1526 1527 1529 1531 1531 1532 1531 1531 1532 1532 1532 1533 1534 1534 1535 1535 1535 1535 1536 1536 1537 1538 1539 1539 1540 1541 1541 1542 1542 1542 1542 1543 1543 1544 1544 1545 1545 1546 1546 1546 1547 1547 1548 1549 1550 1551 1551 1551 1552 1553 1553 1554 1554 1555 1556 1557 1558 1558 1558 1558 1557 1558 1558 1558 1559 1559 1559 1558 1558 1558 1559
1514 1515 1515 1516 1518 1519 1520 1520 1520 1521 1522 1523 1524 1525 1526 1527 1529 1530 1531 1532 1532 1531 1532 1532 1532 1533 1534 1534 1535 1535 1535 1536 1536 1536 1537 1538 1539 1539 1540 1541 1541 1541 1542 1542 1542 1542 1543 1543 1544 1545 1545 1546 1546 1546 1547 1547 1548 1549 1550 1551 1551 1551 1552 1553 1553 1554 1554 1555 1556 1557 1557 1558 1558 1557 1557 1557 1557 1558 1558 1559 1559 1559 1558 1559 1559
1517 1518 1519 1519 1519 1520 1520 1521 1521 1522 1523 1523 1524 1525 1526 1527 1529 1530 1531 1531 1532 1532 1532 1532 1532 1532 1533 1534 1534 1535 1535 1536 1536 1536 1537 1538 1539 1539 1540 1540 1541 1541 1541 1541 1542 1542 1543 1543 1544 1544 1545 1546 1546 1547 1547 1548 1548 1549 1549 1550 1551 1551 1552 1552 1553 1553 1554 1555 1556 1556 1557 1557 1557 1557 1557 1557 1557 1557 1558 1559 1559 1558 1558 1558 1559
1518 1520 1520 1521 1521 1521 1522 1522 1522 1523 1523 1524 1525 1526 1526 1528 1529 1529 1530 1531 1531 1532 1532 1532 1532 1532 1533 1533 1534 1534 1535 1535 1536 1536 1537 1538 1539 1539 1540 1540 1540 1541 1541 1541 1542 1542 1542 1543 1543 1544 1544 1545 1546 1547 1547 1548 1548 1549 1549 1550 1550 1550 1551 1552 1552 1553 1554 1554 1555 1555 1556 1557 1557 1556 1556 1556 1556 1557 1558 1558 1558 1558 1558 1558 1558
1514 1519 1520 1520 1521 1522 1522 1523 1523 1523 1524 1525 1525 1526 1527 1528 1529 1529 1529 1530 1530 1531 1531 1531 1532 1532 1532 1532 1533 1534 1535 1535 1535 1536 1537 1538 1539 1540 1540 1540 1540 1540 1541 1541 1542 1542 1543 1543 1543 1543 1544 1545 1545 1546 1547 1547 1548 1548 1549 1550 1550 1550 1551 1551 1552 1553 1553 1554 1554 1555 1556 1556 1556 1556 1556 1556 1556 1556 1557 1558 1558 1558 1558 1558 1558
1511 1519 1520 1519 1521 1521 1522 1523 1523 1523 1524 1524 1525 1526 1526 1527 1528 1528 1529 1529 1530 1530 1531 1531 1531 1531 1532 1532 1532 1533 1534 1535 1535 1536 1536 1537 1539 1540 1540 1540 1540 1540 1540 1541 1541 1542 1542 1543 1543 1544 1544 1545 1545 1546 1546 1547 1547 1548 1548 1549 1550 1550 1550 1551 1551 1552 1553 1553 1554 1555 1555 1555 1556 1556 1556 1556 1556 1556 1556 1557 1557 1558 1558 1558 1558
1509 1517 1519 1519 1521 1521 1521 1522 1522 1523 1523 1524 1524 1525 1526 1527 1528 1528 1528 1528 1529 1530 1530 1531 1531 1531 1531 1531 1532 1533 1534 1534 1535 1535 1536 1536 1537 1539 1539 1539 1539 1540 1540 1540 1541 1541 1542 1543 1544 1545 1545 1545 1545 1546 1546 1546 1547 1547 1547 1549 1549 1549 1550 1550 1550 1551 1552 1553 1553 1554 1554 1555 1556 1556 1556 1556 1556 1556 1556 1556 1557 1557 1557 1558 1558
1507 1514 1519 1520 1521 1520 1521 1521 1522 1523 1523 1524 1524 1525 1525 1526 1527 1527 1528 1528 1528 1529 1530 1530 1530 1530 1530 1531 1531 1532 1533 1533 1534 1534 1535 1535 1535 1536 1536 1537 1538 1538 1539 1539 1540 1541 1542 1543 1544 1545 1545 1545 1545 1545 1545 1546 1547 1547 1547 1548 1549 1549 1549 1549 1550 1551 1552 1552 1553 1553 1554 1554 1555 1556 1556 1556 1556 1556 1556 1556 1556 1556 1557 1557 1558
1506 1511 1518 1520 1520 1520 1520 1521 1522 1523 1523 1524 1524 1525 1525 1526 1527 1527 1527 1528 1528 1528 1529 1530 1530 1530 1529 1530 1530 1531 1531 1532 1532 1532 1533 1534 1535 1535 1536 1536 1536 1537 1538 1538 1538 1540 1541 1542 1543 1544 1544 1545 1544 1544 1545 1546 1546 1547 1547 1547 1548 1549 1549 1549 1549 1550 1551 1552 1552 1553 1553 1554 1555 1555 1555 1555 1556 1556 1556 1556 1556 1556 1556 1557 1557
1504 1510 1516 1519 1520 1519 1520 1521 1522 1523 1523 1524 1524 1524 1525 1525 1526 1527 1527 1527 1528 1528 1528 1529 1529 1529 1529 1529 1529 1530 1530 1530 1531 1531 1532 1533 1534 1535 1535 1535 1535 1536 1537 1537 1537 1538 1539 1541 1542 1543 1544 1544 1544 1544 1545 1546 1546 1546 1546 1546 1547 1547 1547 1548 1549 1549 1550 1551 1552 1552 1553 1554 1554 1555 1555 1555 1555 1556 1556 1556 1556 1556 1556 1556 1557
1504 1509 1515 1518 1519 1519 1519 1520 1521 1522 1523 1523 1524 1524 1525 1525 1526 1526 1527 1527 1527 1528 1528 1529 1529 1528 1528 1528 1528 1529 1530 1530 1530 1531 1531 1532 1533 1534 1534 1534 1535 1535 1536 1537 1537 1537 1538 1539 1540 1541 1542 1543 1543 1544 1544 1545 1545 1545 1545 1545 1546 1546 1546 1547 1548 1548 1549 1550 1551 1552 1553 1553 1554 1554 1555 1555 1555 1555 1556 1556 1556 1556 1556 1556 1557
1504 1508 1514 1517 1518 1518 1519 1519 1520 1521 1522 1523 1523 1524 1525 1525 1526 1526 1527 1527 1527 1528 1528 1528 1528 1528 1528 1527 1528 1529 1529 1529 1530 1530 1531 1532 1532 1533 1534 1534 1534 1535 1536 1536 1537 1537 1537 1538 1539 1540 1541 1542 1542 1543 1544 1544 1544 1544 1544 1545 1545 1545 1545 1546 1547 1547 1548 1549 1550 1551 1552 1553 1553 1554 1554 1555 1555 1555 1555 1556 1556 1556 1556 1556 1556
1504 1509 1513 1516 1518 1518 1518 1519 1519 1521 1521 1522 1523 1524 1525 1525 1526 1526 1527 1527 1527 1528 1528 1528 1528 1527 1527 1527 1527 1528 1528 1529 1529 1530 1531 1531 1532 1533 1534 1534 1534 1534 1535 1536 1536 1537 1537 1537 1538 1539 1540 1541 1541 1542 1543 1543 1543 1543 1544 1544 1545 1545 1545 1545 1546 1547 1548 1549 1549 1550 1551 1552 1553 1553 1554 1554 1555 1555 1555 1556 1556 1556 1556 1556 1556
1504 1509 1514 1517 1518 1517 1518 1518 1519 1520 1521 1522 1523 1524 1525 1525 1526 1527 1527 1527 1527 1528 1528 1528 1527 1527 1527 1527 1527 1527 1528 1529 1529 1529 1530 1531 1531 1532 1533 1533 1533 1534 1534 1536 1536 1536 1536 1536 1537 1538 1539 1539 1540 1541 1542 1542 1542 1543 1543 1543 1544 1545 1545 1545 1546 1546 1547 1548 1548 1549 1550 1551 1552 1553 1553 1554 1554 1555 1555 1555 1556 1556 1556 1557 1556
1504 1510 1516 1518 1517 1517 1518 1518 1519 1520 1522 1523 1523 1524 1525 1525 1526 1526 1527 1527 1527 1527 1528 1528 1527 1527 1527 1527 1527 1527 1528 1528 1529 1529 1529 1530 1530 1530 1531 1532 1532 1533 1533 1534 1535 1535 1535 1536 1537 1537 1537 1538 1539 1540 1541 1542 1542 1542 1542 1543 1543 1544 1545 1545 1545 1546 1546 1547 1547 1548 1549 1550 1551 1552 1553 1553 1554 1554 1555 1555 1555 1556 1556 1556 1556
1504 1509 1516 1518 1517 1517 1518 1518 1519 1520 1522 1523 1523 1524 1525 1526 1526 1526 1527 1527 1527 1527 1527 1528 1527 1527 1527 1527 1527 1527 1528 1528 1528 1529 1529 1529 1529 1530 1530 1531 1531 1532 1532 1533 1533 1534 1535 1535 1536 1536 1536 1537 1538 1540 1541 1541 1541 1542 1542 1542 1542 1543 1544 1545 1545 1545 1545 1546 1546 1547 1548 1549 1550 1551 1552 1552 1553 1553 1554 1554 1555 1555 1556 1556 1556
1502 1506 1513 1517 1517 1517 1517 1518 1519 1520 1521 1523 1524 1524 1525 1526 1526 1526 1526 1526 1527 1527 1527 1528 1528 1528 1528 1528 1527 1527 1528 1528 1528 1529 1529 1529 1529 1529 1529 1530 1530 1530 1531 1531 1532 1532 1534 1534 1535 1535 1536 1536 1537 1538 1539 1540 1541 1541 1541 1541 1541 1542 1543 1544 1544 1544 1545 1545 1545 1546 1547 1548 1549 1549 1550 1551 1552 1552 1553 1553 1554 1555 1555 1556 1556
1501 1503 1510 1515 1516 1516 1517 1518 1519 1519 1521 1522 1523 1524 1524 1525 1526 1526 1526 1526 1527 1527 1527 1528 1528 1529 1529 1529 1528 1528 1529 1529 1529 1529 1529 1529 1529 1529 1529 1529 1529 1529 1530 1530 1530 1531 1532 1533 1534 1535 1535 1535 1536 1537 1538 1539 1540 1540 1540 1540 1540 1541 1541 1542 1543 1544 1544 1544 1545 1545 1546 1547 1548 1549 1549 1550 1551 1552 1552 1552 1553 1554 1555 1555 1556
1501 1503 1508 1512 1514 1516 1517 1518 1518 1519 1520 1521 1522 1523 1524 1524 1526 1527 1527 1527 1527 1527 1528 1528 1529 1529 1529 1529 1529 1529 1529 1529 1529 1529 1529 1529 1529 1529 1529 1529 1529 1529 1529 1529 1529 1530 1531 1532 1533 1534 1534 1534 1535 1536 1537 1538 1539 1539 1539 1539 1539 1540 1540 1541 1542 1543 1543 1543 1544 1545 1545 1546 1547 1548 1548 1549 1550 1550 1551 1551 1552 1553 1553 1554 1555
1501 1504 1508 1511 1513 1515 1517 1518 1518 1519 1520 1522 1523 1524 1524 1525 1526 1527 1528 1528 1529 1529 1529 1529 1530 1530 1530 1530 1529 1529 1529 1528 1528 1529 1529 1529 1529 1529 1529 1529 1529 1529 1529 1529 1529 1529 1530 1531 1532 1532 1533 1533 1534 1534 1535 1536 1537 1538 1538 1538 1538 1538 1539 1540 1541 1542 1542 1543 1543 1544 1545 1545 1546 1547 1547 1548 1548 1549 1549 1550 1551 1551 1552 1553 1553
1502 1505 1508 1510 1512 1514 1516 1517 1518 1519 1521 1523 1524 1525 1526 1527 1527 1528 1529 1529 1530 1530 1530 1530 1531 1531 1531 1531 1530 1529 1529 1529 1528 1529 1529 1529 1529 1529 1529 1529 1529 1529 1529 1529 1528 1529 1529 1530 1531 1531 1531 1532 1533 1533 1534 1535 1536 1536 1537 1537 1538 1538 1538 1538 1540 1540 1541 1542 1543 1543 1544 1545 1545 1546 1546 1547 1547 1548 1548 1549 1550 1550 1551 1551 1552
1503 1505 1507 1509 1511 1513 1515 1516 1517 1519 1522 1524 1526 1526 1527 1528 1528 1529 1530 1530 1530 1531 1531 1531 1531 1531 1531 1531 1530 1530 1529 1529 1529 1529 1529 1529 1529 1529 1529 1529 1529 1529 1529 1529 1529 1529 1529 1530 1530 1530 1530 1531 1532 1532 1533 1534 1535 1535 1536 1537 1537 1537 1537 1537 1538 1539 1540 1541 1542 1542 1543 1544 1544 1545 1546 1546 1547 1547 1547 1548 1549 1549 1550 1550 1551
1502 1503 1506 1508 1510 1512 1514 1516 1517 1519 1521 1524 1525 1526 1526 1527 1528 1529 1530 1530 1531 1531 1531 1531 1531 1531 1531 1531 1531 1530 1530 1530 1530 1530 1529 1529 1529 1529 1529 1529 1529 1529 1529 1529 1530 1529 1529 1529 1530 1530 1530 1530 1531 1532 1532 1533 1534 1535 1536 1536 1537 1537 1537 1537 1538 1538 1539 1540 1541 1541 1542 1543 1543 1544 1544 1545 1546 1546 1546 1547 1548 1548 1549 1549 1550
1501 1503 1505 1507 1510 1512 1514 1515 1517 1518 1520 1522 1523 1524 1525 1526 1527 1528 1529 1530 1530 1531 1531 1531 1531 1531 1531 1531 1531 1531 1531 1531 1530 1530 1530 1530 1530 1529 1529 1530 1530 1530 1530 1530 1530 1530 1530 1530 1530 1530 1530 1530 1531 1531 1532 1532 1534 1534 1535 1535 1536 1536 1536 1536 1537 1537 1538 1538 1539 1540 1541 1542 1543 1543 1543 1544 1545 1545 1545 1546 1546 1547 1548 1548 1548
1500 1502 1505 1507 1510 1512 1514 1515 1516 1517 1519 1520 1521 1523 1524 1526 1527 1528 1529 1530 1530 1531 1532 1532 1532 1532 1532 1532 1532 1531 1531 1531 1531 1531 1531 1531 1531 1531 1531 1531 1531 1531 1531 1531 1531 1531 1531 1531 1531 1531 1531 1531 1531 1531 1532 1532 1533 1534 1534 1535 1535 1536 1536 1536 1536 1537 1537 1538 1538 1539 1540 1541 1542 1542 1542 1543 1543 1544 1545 1545 1545 1546 1547 1547 1547
1500 1502 1504 1507 1509 1511 1513 1514 1515 1516 1517 1518 1519 1521 1523 1525 1527 1529 1530 1530 1530 1530 1531 1532 1533 1533 1533 1533 1532 1532 1532 1532 1531 1531 1531 1531 1532 1532 1532 1532 1532 1532 1532 1532 1532 1532 1532 1532 1532 1532 1532 1532 1532 1532 1532 1532 1533 1533 1533 1534 1535 1535 1536 1536 1536 1537 1537 1537 1538 1539 1540 1540 1541 1542 1542 1542 1543 1543 1544 1544 1545 1545 1545 1545 1545
1500 1501 1503 1506 1508 1510 1512 1513 1513 1514 1515 1516 1517 1519 1522 1524 1526 1528 1529 1530 1530 1530 1531 1532 1533 1533 1533 1533 1533 1533 1532 1532 1532 1531 1531 1532 1532 1533 1533 1533 1533 1533 1533 1532 1532 1532 1532 1532 1533 1533 1533 1533 1533 1533 1533 1533 1533 1534 1534 1534 1535 1535 1535 1535 1536 1536 1537 1537 1538 1538 1539 1540 1541 1541 1542 1542 1543 1543 1543 1544 1544 1544 1544 1544 1544
1499 1501 1503 1504 1506 1508 1510 1510 1510 1511 1513 1514 1516 1518 1521 1523 1525 1527 1528 1529 1529 1529 1530 1531 1533 1533 1534 1534 1534 1534 1533 1533 1532 1532 1532 1532 1533 1533 1534 1534 1534 1534 1534 1534 1533 1533 1533 1533 1533 1533 1533 1534 1534 1534 1534 1534 1534 1535 1535 1535 1535 1535 1535 1535 1536 1536 1537 1538 1538 1538 1539 1540 1541 1541 1541 1542 1542 1543 1543 1543 1543 1542 1543 1543 1543
1500 1501 1502 1503 1504 1504 1506 1506 1507 1509 1511 1513 1516 1518 1520 1522 1524 1525 1526 1527 1527 1528 1529 1531 1532 1533 1534 1534 1534 1534 1534 1533 1533 1533 1533 1533 1533 1534 1534 1535 1535 1535 1535 1535 1535 1534 1534 1534 1534 1534 1534 1534 1534 1534 1534 1534 1535 1535 1535 1536 1536 1536 1536 1536 1536 1537 1538 1538 1538 1538 1539 1540 1540 1541 1541 1541 1541 1542 1542 1542 1542 1542 1542 1541 1541